Weather History for KDTO - February, 2014

Change the Weather History Date:

Monday, February 17, 2014

  Actual Average Record
Temperature  
Mean Temperature 56 °F -  
Max Temperature 72 °F 58 °F 79 °F (2011)
Min Temperature 41 °F 37 °F 24 °F (2003)
Degree Days  
Heating Degree Days 8    
Growing Degree Days 6 (Base 50)    
Moisture  
Dew Point 37 °F    
Average Humidity 54    
Maximum Humidity 100    
Minimum Humidity 16    
Precipitation  
Precipitation 0.00 in - - ()
Sea Level Pressure  
Sea Level Pressure 30.03 in    
Wind  
Wind Speed 10 mph (NNW)    
Max Wind Speed 29 mph    
Max Gust Speed 39 mph    
Visibility 8 miles    
Events      
Averages and records for this station are not official NWS values.
T = Trace of Precipitation, MM = Missing Value Source: NWS Daily Summary

Daily Weather History Graph

Daily Weather History Graph

Search for Another Location

Airport or City:

Trip Planner

Search our weather history database for the weather conditions in past years. The results will help you decide how hot, cold, wet, or windy it might be!

Date:

Astronomy

Feb. 17, 2014 Rise Set
Actual Time 7:10 AM CST 6:15 PM CST
Civil Twilight 6:45 AM CST 6:40 PM CST
Nautical Twilight 6:16 AM CST 7:09 PM CST
Astronomical Twilight 5:47 AM CST 7:38 PM CST
Moon 8:59 PM CST (2/17) 8:21 AM CST (2/17)
Length of Visible Light 11h 55m
Length of Day
11h 05m
Waning Gibbous, 93% of the Moon is Illuminated
Feb 17
Waning Gibbous
Feb 22
Last Quarter
Mar 1
New
Mar 8
First Quarter
Mar 16
Full

Hourly Weather History & Observations

Time (CST) Temp. Windchill Dew Point Humidity Pressure Visibility Wind Dir Wind Speed Gust Speed Precip Events Conditions
12:53 AM 60.1 °F - 57.0 °F 90% 29.84 in 7.0 mi SSE 9.2 mph - N/A   Clear
1:53 AM 60.1 °F - 57.0 °F 90% 29.83 in 7.0 mi South 9.2 mph - N/A   Clear
2:53 AM 59.0 °F - 57.0 °F 93% 29.83 in 6.0 mi South 11.5 mph - N/A   Clear
3:53 AM 59.0 °F - 57.0 °F 93% 29.83 in 5.0 mi South 11.5 mph - N/A   Clear
4:53 AM 57.9 °F - 57.0 °F 97% 29.85 in 5.0 mi South 11.5 mph - N/A   Clear
5:53 AM 57.0 °F - 55.9 °F 96% 29.87 in 4.0 mi South 9.2 mph - N/A   Clear
6:40 AM 53.6 °F - 53.6 °F 100% 29.95 in 1.8 mi NW 3.5 mph - N/A   Clear
6:53 AM 54.0 °F - 53.1 °F 97% 29.95 in 1.8 mi West 5.8 mph - N/A   Clear
7:01 AM 53.6 °F - 53.6 °F 100% 29.97 in 3.0 mi West 5.8 mph - N/A   Clear
7:53 AM 57.0 °F - 44.1 °F 62% 30.00 in 10.0 mi NNW 10.4 mph - N/A   Clear
8:53 AM 57.9 °F - 39.0 °F 49% 30.06 in 10.0 mi North 10.4 mph - N/A   Clear
9:53 AM 64.9 °F - 28.0 °F 25% 30.08 in 10.0 mi North 16.1 mph 25.3 mph N/A   Clear
10:53 AM 66.9 °F - 23.0 °F 19% 30.11 in 10.0 mi North 28.8 mph 39.1 mph N/A   Clear
11:53 AM 70.0 °F - 26.1 °F 19% 30.12 in 10.0 mi North 13.8 mph 23.0 mph N/A   Clear
12:53 PM 71.1 °F - 27.0 °F 19% 30.10 in 10.0 mi NNE 18.4 mph 25.3 mph N/A   Clear
1:53 PM 72.0 °F - 24.1 °F 17% 30.09 in 10.0 mi North 17.3 mph - N/A   Clear
2:53 PM 72.0 °F - 24.1 °F 17% 30.08 in 10.0 mi NNE 9.2 mph - N/A   Clear
3:53 PM 71.1 °F - 23.0 °F 16% 30.09 in 10.0 mi North 12.7 mph - N/A   Clear
4:53 PM 70.0 °F - 23.0 °F 17% 30.10 in 10.0 mi Calm Calm - N/A   Clear
5:53 PM 66.0 °F - 24.1 °F 20% 30.11 in 10.0 mi North 4.6 mph - N/A   Clear
6:53 PM 57.0 °F - 26.1 °F 30% 30.13 in 10.0 mi North 6.9 mph - N/A   Clear
7:53 PM 55.0 °F - 25.0 °F 31% 30.14 in 10.0 mi North 5.8 mph - N/A   Clear
8:53 PM 51.1 °F - 26.1 °F 38% 30.15 in 10.0 mi Calm Calm - N/A   Clear
9:53 PM 46.9 °F - 28.0 °F 48% 30.14 in 10.0 mi Calm Calm - N/A   Clear
10:53 PM 41.0 °F 39.0 °F 28.9 °F 62% 30.14 in 10.0 mi NNW 3.5 mph - N/A   Clear
11:53 PM 43.0 °F 41.3 °F 28.9 °F 58% 30.12 in 10.0 mi NW 3.5 mph - N/A   Clear